Location: Unspecified
(0.0000°N, 0.0000°E)
Time: 23:40:09
(UTC+00:00)

S-56A Canister/Altair - Pass Details

Date: 04 October 2020
Orbit: 633 x 2499 km, 38.9° (Epoch: 28 October)

Event Time Altitude Azimuth Distance (km) Brightness Sun altitude
Rises 11:48:14 0° 267° (W) 5,028 11.7 85.4°
Reaches altitude 10° 11:52:12 10° 281° (W) 4,319 11.5 85.3°
Maximum altitude 12:01:22 24° 329° (NNW) 3,777 11.4 84.4°
Drops below altitude 10° 12:12:16 10° 17° (NNE) 5,131 11.8 82.5°
Sets 12:17:42 0° 30° (NNE) 6,163 12.1 81.4°
